Flag for Germany Weather past 2 weeks in Herford, North Rhine-Westphalia, Germany

Now
79 °F

Passing clouds.


Feels Like: 79 °F
Forecast: 56 / 71 °F
Wind: 8 mph from Southwest

Location: Bueckeburg

Current Time: Aug 31, 2015 at 10:23:42 PM

Latest Report: Aug 31, 2015 at 9:20 PM


Visibility: N/A

Pressure: 29.74 "Hg

Humidity: 45%

Dew point: 55 °F

Location of HerfordLocation

Historic Weather in Herford — Graph

°F

Herford temperature yesterday

Maximum temperature yesterday: 81 °F (at 6:20 PM)
Minimum temperature yesterday: 59 °F (at 3:20 AM)
Average temperature yesterday: 67 °F

Past Weeks' High & Low Weather Summary

 TemperatureHumidityPressure
High91 °F (Aug 31, 4:20 PM)100% (Aug 16, 9:20 PM)30.27 "Hg (Aug 16, 9:20 PM)
Low52 °F (Aug 29, 6:20 AM)30% (Aug 31, 4:20 PM)29.56 "Hg (Aug 24, 6:20 PM)
Average66 °F74%29.97 "Hg
* Reported Aug 16 8:20 PM — Aug 31 8:20 PM, Herford, Weather by CustomWeather, © 2015

Note: Actual official high and low records may vary slightly from our data, if they occured in-between our weather recording intervals... More about our weather records

Advertising

Herford weather history for previous 24 hours

 ConditionsComfort  
Time TempWeatherWind HumidityBarometerVisibility
8:20 PM
Mon, Aug 31
81 °FScattered clouds.8 mph42%29.74 "HgN/A
7:20 PM86 °FScattered clouds.10 mph33%29.74 "HgN/A
6:20 PM90 °FScattered clouds.9 mph31%29.74 "HgN/A
5:20 PM91 °FScattered clouds.8 mph32%29.74 "HgN/A
4:20 PM91 °FScattered clouds.12 mph30%29.74 "HgN/A
3:20 PM90 °FScattered clouds.8 mph46%29.77 "HgN/A
2:20 PM88 °FPartly sunny.8 mph52%29.80 "HgN/A
1:20 PM84 °FPartly sunny.7 mph70%29.83 "HgN/A
12:20 PM81 °FPartly sunny.13 mph74%29.86 "HgN/A
11:20 AM77 °FPartly sunny.14 mph79%29.89 "HgN/A
10:20 AM75 °FPartly sunny.7 mph74%29.92 "HgN/A
9:20 AM73 °FPartly sunny.3 mph78%29.92 "HgN/A
8:20 AM70 °FPartly sunny.5 mph88%29.92 "HgN/A
7:20 AM66 °FPassing clouds.6 mph100%29.95 "HgN/A
6:20 AM66 °FPassing clouds.7 mph100%29.95 "HgN/A
5:20 AM68 °FPassing clouds.3 mph94%29.95 "HgN/A
4:20 AM68 °FFog.3 mph100%29.98 "Hg1 mi
3:49 AM68 °FFog.3 mph100%29.98 "Hg1 mi
3:20 AM70 °FFog.10 mph100%30.01 "Hg0 mi
2:20 AM70 °FFog.3 mph100%29.98 "Hg0 mi
1:20 AM72 °FFog.1 mph100%29.98 "Hg0 mi
12:48 AM72 °FFog.2 mph100%29.98 "Hg0 mi
12:20 AM72 °FFog.2 mph100%29.98 "Hg3 mi
11:20 PM
Sun, Aug 30
72 °FPassing clouds.2 mph100%29.98 "HgN/A
10:20 PM73 °FPassing clouds.2 mph94%30.01 "HgN/A
Weather by CustomWeather, © 2015

See weather overviewHow to use our weather pages